GW5931 Weather Reports


Display with metric or nautical units.
time (UTC)temp
F
wind
direction
speed
MPH
gust
MPH
rain 1hr
in
rain 24hr
in
rain mn
in
humidity
%
barometer
mb
20260504044504 53 282 9.0 20.0 0.00 0.01 0.00 53 1006.5
20260504043101 54 261 10.0 18.0 0.00 0.01 0.00 53 1006.5
20260504041555 54 252 8.0 16.0 0.00 0.01 0.00 53 1006.5
20260504040052 54 227 8.0 19.0 0.00 0.01 0.00 53 1006.4
20260504034557 54 242 10.0 17.0 0.00 0.01 0.01 53 1006.3
20260504033056 53 222 7.0 15.0 0.00 0.01 0.01 53 1006.4
20260504031550 54 251 11.0 18.0 0.00 0.01 0.01 53 1006.4
20260504030048 53 235 8.0 15.0 0.00 0.01 0.01 55 1006.5
20260504024547 53 219 10.0 17.0 0.00 0.01 0.01 55 1006.5
20260504023044 54 215 8.0 23.0 0.00 0.01 0.01 54 1006.6
20260504021543 53 260 11.0 20.0 0.00 0.01 0.01 55 1006.7
20260504020042 53 245 8.0 15.0 0.00 0.01 0.01 56 1006.8
20260504014540 53 248 8.0 14.0 0.00 0.01 0.01 58 1006.7
20260504013042 53 240 7.0 16.0 0.00 0.01 0.01 60 1006.8
20260504011538 52 234 7.0 13.0 0.00 0.01 0.01 69 1006.8
20260504010048 49 242 3.0 7.0 0.00 0.01 0.01 81 1006.9
20260504004541 49 201 1.0 3.0 0.00 0.01 0.01 82 1007.3
20260504004537 49 200 1.0 3.0 0.00 0.01 0.01 82 1007.3
20260504003035 49 201 0.0 3.0 0.00 0.01 0.01 82 1007.3
20260504001537 49 209 0.0 3.0 0.00 0.01 0.01 82 1007.4
20260504000037 50 209 1.0 5.0 0.01 0.01 0.01 81 1007.6
20260503234534 50 240 2.0 7.0 0.01 0.01 0.01 79 1007.6
20260503233030 50 274 4.0 11.0 0.01 0.01 0.01 77 1007.4
20260503231530 51 250 3.0 13.0 0.01 0.01 0.01 73 1007.5
20260503230028 53 256 8.0 15.0 0.00 0.00 0.00 64 1007.5
20260503224527 53 257 8.0 15.0 0.00 0.00 0.00 57 1007.3
20260503223025 53 250 10.0 16.0 0.00 0.00 0.00 56 1007.1
20260503221531 53 249 10.0 22.0 0.00 0.00 0.00 54 1006.9
20260503220023 53 234 11.0 24.0 0.00 0.00 0.00 52 1007.0
20260503214525 54 226 14.0 25.0 0.00 0.00 0.00 49 1007.0
20260503213028 54 225 13.0 22.0 0.00 0.00 0.00 49 1006.7
20260503211520 54 244 11.0 19.0 0.00 0.00 0.00 48 1007.0
20260503210018 55 230 8.0 20.0 0.00 0.00 0.00 48 1007.2
20260503204523 55 225 7.0 23.0 0.00 0.00 0.00 47 1007.2
20260503203015 55 284 7.0 26.0 0.00 0.00 0.00 46 1007.2
20260503201525 56 257 10.0 20.0 0.00 0.00 0.00 44 1007.3
20260503200012 56 192 13.0 21.0 0.00 0.00 0.00 42 1007.5
20260503194509 57 269 10.0 17.0 0.00 0.00 0.00 40 1007.8
20260503193004 56 225 15.0 23.0 0.00 0.00 0.00 39 1008.1
20260503191501 57 298 12.0 25.0 0.00 0.00 0.00 39 1008.3
20260503190058 55 255 14.0 22.0 0.00 0.00 0.00 38 1008.6
20260503184557 55 234 12.0 21.0 0.00 0.00 0.00 39 1008.9
20260503183050 54 228 11.0 20.0 0.00 0.00 0.00 39 1009.2
20260503181618 55 250 11.0 22.0 0.00 0.00 0.00 38 1009.5
20260503180055 54 236 15.0 23.0 0.00 0.00 0.00 39 1009.6
20260503174553 54 254 8.0 14.0 0.00 0.00 0.00 40 1009.7
20260503173052 55 260 8.0 19.0 0.00 0.00 0.00 44 1009.9
20260503171537 53 262 9.0 15.0 0.00 0.00 0.00 46 1009.9
20260503081600 37 248 4.0 9.0 0.00 0.00 0.00 83 1011.8
20260503071556 37 240 4.0 7.0 0.00 0.00 0.00 81 1011.8
20260503054532 39 251 3.0 7.0 0.00 0.00 0.00 77 1012.1
20260503053037 39 244 2.0 7.0 0.00 0.00 0.00 76 1012.2
20260503051526 40 234 2.0 7.0 0.00 0.00 0.00 75 1012.4
20260503050023 40 264 3.0 7.0 0.00 0.00 0.00 75 1012.5